Retour au catalogue

STARLINK-36537

ActifCommunicationsVLEO
NORAD 67516·PAYLOAD·🇺🇸 United States

Lancé Jan 18, 2026 depuis Cape Canaveral Space Force Station

Loading…

Prochains Passages (prochaines 24 heures)

TLE

FraisSource: CelesTrak SupGP

Époque: Sep 15, 2026, 03:16 UTC

1 67516C 26012Z   26258.13659722  .00040361  00000+0  14614-2 0  2583
2 67516  43.0035 324.3628 0001728 269.9933 206.6437 15.27568045    11

Suivez STARLINK-36537 en temps réel avec AllMySat

Download on the App Store